Wind_Speed
15 14 17 20 16 13 15 18 18 15 12 11 11 11 13 14 13 12 12 13 14 14 12 11 10 11 14 13 13 13 12 12 13 13 13 13 14 14 14 13 14 15 16 16 16 15 14 13 14 13 13 13 13 13 13 13 12 12 11 11 10 9 8 8 7 6 4 3 3 4 5 5 6 6 5 4 4 5 6 6 5 4 5 5 5
13 14 18 20 17 16 16 16 15 13 11 11 11 11 12 13 12 13 13 13 14 15 14 11 10 11 14 14 13 13 13 12 13 14 13 13 13 14 13 13 14 15 16 16 16 16 15 14 14 14 14 14 14 14 14 14 13 13 12 12 11 11 9 9 8 7 6 5 5 5 6 7 6 7 7 5 5 6 6 6 6 6 6 5 5
14 17 20 19 17 16 15 13 12 12 11 11 11 11 11 10 10 12 13 13 14 15 14 12 11 11 13 13 12 13 13 13 13 13 13 13 13 13 12 12 13 15 16 16 16 16 15 15 15 15 15 15 15 15 14 14 14 13 13 12 11 11 10 9 9 9 7 6 6 7 7 8 7 7 8 7 6 7 7 6 6 5 5 5 5
15 18 19 16 13 13 13 12 11 11 11 11 10 9 9 9 10 11 12 12 13 14 13 12 11 11 13 13 13 13 13 13 13 12 13 13 13 13 12 11 12 13 14 15 14 14 14 15 15 14 14 15 15 14 14 14 13 13 13 12 11 11 11 10 10 10 8 7 7 7 7 8 8 8 9 8 8 8 7 7 6 6 6 6 5
14 17 16 12 12 12 12 11 11 11 12 11 10 8 8 9 10 11 11 12 13 13 13 12 11 12 13 13 13 14 13 13 13 12 13 14 13 13 12 11 11 12 13 13 13 13 13 13 13 13 13 13 14 14 14 14 14 13 13 12 11 11 11 11 11 11 10 9 7 7 7 7 8 8 9 10 9 8 7 6 7 7 7 6 7
14 16 13 11 12 12 11 10 10 11 12 11 10 9 9 10 10 11 12 12 13 14 13 11 11 12 13 13 13 14 13 13 13 12 13 14 13 13 13 12 12 12 12 12 12 13 13 13 13 13 13 13 13 14 14 14 13 13 13 13 12 11 11 12 12 12 12 11 9 9 9 9 8 9 10 11 11 9 7 6 7 8 8 7 7
14 14 11 10 11 10 8 8 8 10 11 11 10 9 10 10 11 12 12 12 12 13 12 11 11 11 12 13 13 12 12 12 11 12 13 14 13 13 13 13 13 13 13 13 13 13 13 12 12 12 12 13 13 13 13 13 13 13 13 13 12 12 12 12 12 13 13 13 12 11 10 10 10 9 11 12 11 10 9 9 9 10 10 8 7
13 11 10 9 10 9 7 8 9 10 10 9 9 9 10 10 11 11 10 11 11 11 11 10 11 11 12 12 12 11 11 12 12 12 13 13 13 13 13 13 13 13 12 13 13 13 13 13 12 12 12 13 14 14 13 13 12 13 12 12 13 14 13 13 13 14 14 14 14 12 11 11 10 9 10 12 12 11 12 12 11 11 10 9 8
11 10 9 8 8 8 8 8 9 10 10 10 9 9 9 10 10 9 9 10 9 9 9 9 10 11 11 11 11 11 12 13 13 12 11 10 11 11 12 13 13 12 12 12 13 13 12 12 13 13 13 14 15 15 15 14 14 13 11 11 13 14 13 13 13 13 14 15 14 12 11 11 11 11 12 13 13 13 13 14 13 11 10 9 9
11 9 9 7 6 6 7 7 8 10 10 10 10 9 9 9 8 8 8 8 7 7 8 9 10 11 11 11 11 12 11 12 12 12 11 11 10 11 12 12 11 11 12 12 12 12 11 10 11 12 12 13 16 18 18 17 16 15 13 12 12 12 12 14 15 14 14 14 14 13 13 13 12 13 13 14 13 13 13 14 12 10 10 11 9
11 10 9 7 6 6 7 7 8 9 10 10 9 9 8 8 8 7 7 7 7 7 7 8 9 9 9 10 11 11 9 9 10 11 11 11 10 11 12 12 11 11 11 12 13 13 11 10 10 10 11 13 16 18 18 16 16 18 18 18 17 15 15 15 14 14 14 15 14 13 13 13 13 13 13 13 13 13 14 13 12 11 12 13 10
11 10 9 8 8 8 8 9 9 9 9 10 10 9 9 8 8 7 6 6 6 6 6 7 7 8 8 8 9 8 6 6 8 9 9 10 10 11 11 12 12 13 13 13 13 13 10 9 10 9 10 14 16 16 15 14 17 19 20 20 20 19 19 17 16 15 14 13 12 13 14 12 10 11 13 14 15 15 14 13 13 13 14 15 14
11 10 10 10 10 10 10 10 9 8 8 9 9 9 9 8 7 5 4 3 3 4 5 5 6 7 6 7 7 5 4 6 6 6 7 8 9 10 10 10 11 12 13 13 13 12 10 9 10 10 11 14 15 14 14 15 17 18 18 18 20 21 21 21 21 20 18 14 11 12 14 13 12 14 15 14 15 15 14 14 14 14 15 17 17
11 11 11 11 11 11 10 10 9 8 8 8 8 8 7 5 4 3 3 4 4 5 7 7 8 8 8 8 7 4 3 5 4 4 6 7 8 9 9 9 9 9 9 10 11 12 11 10 11 10 11 12 11 11 12 13 14 14 13 14 16 18 20 21 22 21 21 20 17 13 14 16 19 20 16 14 16 17 16 16 16 16 17 17 16
11 12 12 12 12 11 11 11 10 10 9 8 8 7 6 5 4 3 4 5 5 6 7 8 9 9 9 10 9 6 4 6 6 5 6 8 9 9 10 11 10 9 9 9 9 11 11 10 9 10 11 12 11 10 10 10 10 11 12 12 14 15 17 19 21 20 18 18 18 17 19 21 22 21 18 17 19 21 21 18 16 17 17 14 12
12 12 12 12 12 11 11 11 11 11 10 9 8 7 6 5 4 4 4 5 6 6 7 7 8 8 8 9 10 8 6 8 8 7 8 10 10 10 11 12 11 10 10 9 8 9 9 9 9 9 10 12 13 12 12 12 12 12 12 12 13 14 16 18 21 21 19 17 16 18 23 23 22 22 21 19 20 21 19 16 15 15 14 12 11
12 12 12 12 12 11 11 11 12 12 11 10 8 7 5 5 5 5 5 6 6 6 6 6 6 7 6 7 8 6 4 4 6 7 9 10 9 9 10 11 11 11 11 10 10 10 10 10 10 11 11 11 11 11 11 11 12 12 13 12 12 13 14 15 18 20 19 17 17 18 21 22 22 22 23 22 22 20 16 16 18 18 15 13 14
12 12 12 12 12 11 11 12 12 12 11 9 8 6 5 5 5 5 5 6 6 5 5 5 5 6 6 5 4 3 2 1 4 5 7 8 8 8 9 10 11 11 11 11 11 11 11 11 11 12 12 11 10 9 7 8 9 11 12 12 12 13 12 12 14 15 15 16 17 18 20 21 22 22 23 23 23 22 20 19 20 19 17 17 16
13 12 11 11 11 12 12 12 11 11 10 9 7 6 6 5 6 6 6 6 6 5 5 5 5 5 5 4 3 3 3 4 5 6 7 9 9 9 9 10 11 12 12 11 11 11 11 11 11 13 13 11 9 9 9 10 10 11 12 12 11 12 12 12 12 12 13 14 14 15 18 19 19 18 20 20 20 22 22 20 19 19 20 20 17
12 11 10 10 11 11 11 11 11 10 9 8 7 6 5 5 6 6 6 6 6 6 6 5 4 4 4 4 4 4 5 5 6 7 8 8 7 7 8 10 11 11 11 11 11 11 11 10 11 13 12 11 11 11 11 11 11 10 11 10 10 11 11 12 12 12 12 12 10 11 14 16 15 13 13 15 15 18 19 19 20 20 20 20 16
11 11 10 10 10 11 11 11 10 9 8 7 5 5 5 6 6 6 6 6 6 6 6 6 5 5 5 6 6 5 5 4 4 5 5 5 6 6 6 7 9 9 10 11 10 10 10 8 7 7 7 8 9 9 9 9 8 9 9 8 8 9 9 8 10 11 11 11 11 11 13 14 13 11 10 10 11 11 12 16 20 20 17 15 12
12 11 10 10 10 10 10 9 9 8 6 5 5 5 5 6 6 6 7 7 7 7 7 6 6 5 5 6 6 5 4 3 3 4 4 6 8 7 6 6 7 7 8 10 10 9 9 7 5 5 6 7 7 8 8 7 5 6 7 6 6 6 5 6 8 8 9 9 10 11 11 11 11 11 10 8 7 6 5 9 16 18 15 14 12
11 9 9 9 9 9 9 8 7 6 5 5 5 6 6 6 6 7 7 7 7 7 7 7 6 5 4 5 4 3 3 3 2 3 5 7 8 8 6 6 6 5 6 8 8 7 6 6 7 8 7 6 6 6 6 5 4 4 5 5 5 5 5 7 8 9 9 9 8 9 9 9 10 8 7 5 5 5 3 5 10 13 12 13 13
10 9 8 8 8 8 8 7 6 5 5 5 6 6 6 6 7 7 7 7 7 7 7 6 5 5 5 4 4 4 3 2 2 3 6 7 6 5 5 4 3 4 4 5 5 5 5 6 7 7 5 3 2 2 4 5 4 3 4 5 6 7 8 9 10 10 11 11 10 9 8 7 6 4 4 4 4 4 3 3 6 8 8 9 10
10 9 8 7 7 7 7 7 6 6 6 6 7 7 7 7 7 8 8 8 7 7 7 6 5 6 5 4 4 4 3 2 2 3 6 6 4 4 4 3 2 1 1 2 2 2 2 2 2 1 1 2 3 2 2 2 1 3 4 6 6 7 9 11 11 12 12 11 11 10 7 5 4 3 4 5 4 3 3 3 4 4 4 3 3
10 9 8 7 7 7 7 7 7 7 7 7 7 8 8 8 7 8 8 8 7 7 6 6 6 5 5 4 3 3 3 2 2 1 2 2 2 5 7 7 7 6 3 1 2 3 3 3 3 3 3 3 3 2 1 1 2 3 4 5 5 6 7 8 11 12 13 14 12 7 3 5 5 4 4 4 4 4 4 5 6 6 6 8 11
11 9 8 7 7 7 7 7 7 8 8 8 7 8 8 7 7 7 7 7 7 7 6 6 5 5 5 4 4 4 4 3 2 1 2 2 2 3 5 6 7 7 5 3 2 3 3 4 3 3 2 2 2 3 3 3 3 3 4 4 5 5 5 7 9 9 9 9 6 1 5 5 4 4 4 5 5 5 6 6 7 8 8 10 13
11 10 9 8 8 8 9 9 9 8 8 8 7 6 5 5 6 6 5 5 5 6 7 7 6 5 4 5 4 5 4 4 3 4 5 4 3 3 4 4 5 4 3 1 1 2 3 3 3 2 2 2 3 3 3 3 2 2 3 4 3 3 3 5 5 4 3 3 2 4 5 5 4 4 5 5 6 6 6 6 8 8 8 10 12
14 13 13 12 11 11 11 11 11 10 8 7 6 4 3 3 3 2 3 5 4 4 3 4 5 5 4 4 4 4 5 5 6 7 9 7 5 6 5 5 4 4 3 2 3 2 2 1 2 2 1 1 2 3 3 4 4 4 4 4 4 3 3 2 2 2 3 3 4 5 5 6 6 6 6 7 8 8 7 8 8 9 10 12 13
17 16 16 15 14 14 13 12 12 10 8 7 6 5 6 7 6 4 5 7 8 7 4 2 3 4 3 4 4 2 4 8 10 11 11 9 7 7 7 6 4 2 3 4 3 1 2 2 2 2 3 3 4 4 5 5 5 5 5 5 5 5 5 4 4 4 5 5 6 6 7 7 7 7 7 8 9 9 10 9 10 11 12 14 15
21 21 21 19 18 17 15 13 12 10 9 8 6 6 6 8 9 10 9 8 10 10 9 6 5 5 3 5 5 4 6 12 13 11 9 6 5 7 7 7 4 2 2 1 2 0 4 5 4 4 5 5 5 6 6 6 6 6 6 6 6 6 6 6 6 6 6 6 7 7 8 8 9 9 10 11 11 11 11 11 11 13 13 14 15
26 24 21 19 20 19 16 13 13 12 11 9 8 7 6 6 7 9 9 9 9 10 9 8 7 8 7 7 8 9 11 14 12 8 5 3 5 7 6 4 4 6 4 1 2 2 6 6 6 6 6 6 7 7 7 7 7 7 7 6 6 6 6 6 6 7 7 7 8 8 8 9 10 10 11 11 11 11 11 12 12 13 13 13 14
30 26 19 14 15 18 17 15 16 16 15 13 11 9 8 7 6 6 6 6 6 7 8 7 8 10 10 9 10 12 14 13 10 6 3 3 5 6 4 3 5 6 2 1 1 4 6 6 6 7 7 7 7 7 7 7 7 7 7 7 6 6 6 6 7 7 7 8 8 8 9 9 9 10 10 10 11 11 12 12 12 12 13 14 14
32 29 23 15 13 15 16 16 17 18 18 17 15 12 11 9 8 8 8 7 6 6 7 8 9 10 11 11 12 14 14 12 8 5 2 3 4 4 4 5 6 5 3 3 4 6 6 7 7 7 7 7 6 6 6 6 6 6 7 6 6 6 6 6 6 7 7 8 8 8 9 9 9 10 10 10 10 10 11 11 11 12 13 13 14
32 28 23 17 14 14 15 15 15 16 18 18 17 15 13 11 9 9 10 9 8 8 8 9 10 12 12 13 14 14 13 10 6 4 2 2 3 4 5 5 5 5 5 5 5 5 6 7 7 6 6 5 5 4 5 5 5 5 5 5 5 6 5 5 6 6 7 8 8 9 9 9 10 10 10 10 9 10 10 11 11 12 12 14 14
26 23 21 19 17 15 15 15 13 13 14 16 17 16 14 12 11 11 11 10 10 11 11 10 11 13 14 14 15 14 11 8 6 4 2 3 4 5 6 5 4 5 5 5 5 5 6 6 6 6 5 4 3 3 4 4 4 4 4 4 4 4 5 6 6 7 8 9 10 10 10 10 10 10 10 9 9 9 10 11 11 11 12 13 14
20 18 18 19 18 17 17 15 14 13 12 13 14 15 14 13 12 11 11 11 11 11 12 13 13 14 14 14 15 14 11 8 6 4 3 5 5 5 4 3 5 5 5 6 6 6 6 5 5 5 5 4 3 3 3 4 4 5 5 4 4 5 6 7 6 8 9 10 10 10 9 8 8 8 9 9 9 9 9 10 10 10 10 11 12
19 17 18 20 21 21 19 16 15 15 13 12 12 13 14 14 14 12 11 12 11 12 13 14 16 15 14 15 16 14 11 8 7 6 6 7 6 5 4 5 6 6 6 6 6 6 6 6 4 4 4 3 3 3 2 2 3 3 4 4 5 5 6 7 7 8 9 9 9 8 8 8 8 8 8 8 8 8 9 9 10 10 10 10 11
19 18 19 21 22 22 19 17 16 16 15 13 12 13 13 14 15 14 13 13 13 13 13 14 15 15 15 16 16 14 12 10 10 9 9 9 7 6 6 6 6 6 6 6 6 6 6 5 5 4 4 4 3 3 2 2 2 2 1 2 3 3 4 5 7 7 7 8 8 7 7 8 8 8 8 8 9 9 9 9 10 11 12 11 11
19 18 20 22 23 20 19 18 17 16 16 14 14 14 14 14 15 15 14 14 14 14 14 14 15 14 15 16 17 15 13 12 11 10 10 10 8 7 7 7 7 7 7 7 7 7 7 6 6 6 5 5 5 4 3 3 3 3 2 2 2 2 3 4 5 6 7 7 7 6 6 7 7 7 7 8 8 9 10 10 11 12 11 11 11
17 17 18 21 23 21 19 18 17 17 17 16 15 15 15 15 15 15 14 14 14 14 14 14 14 14 15 18 19 17 13 11 10 10 10 10 9 9 8 8 8 8 7 8 7 7 7 7 7 7 7 6 6 6 5 4 4 4 4 4 3 3 4 4 4 5 6 6 6 6 6 7 7 6 6 7 8 9 10 10 11 11 11 10 11
17 17 16 19 22 23 21 18 17 17 17 17 17 17 16 15 15 15 14 14 14 14 14 14 13 14 16 20 21 19 13 10 9 11 11 10 10 10 9 8 8 8 8 8 8 8 7 7 7 8 8 7 7 7 7 6 6 5 5 5 4 5 5 5 5 5 6 6 7 6 6 7 7 6 6 7 8 8 9 10 11 11 11 11 11
17 19 18 18 21 23 22 20 19 19 19 19 19 18 17 16 16 15 15 14 14 14 14 14 14 14 16 21 23 20 14 10 9 10 10 10 10 10 9 9 9 9 9 8 8 8 9 9 9 9 9 9 9 8 8 7 7 6 6 5 5 5 6 6 6 7 7 7 7 7 7 7 8 7 7 8 8 8 8 9 10 11 12 12 12
18 20 20 19 21 23 23 21 20 20 20 19 18 18 17 16 15 15 14 14 13 13 14 14 14 14 15 20 23 20 15 12 11 10 10 10 9 9 9 9 9 8 8 8 8 8 9 10 10 10 10 10 10 10 10 9 9 8 7 7 7 6 7 8 8 8 8 8 8 8 8 9 9 9 9 9 9 8 8 9 10 10 11 12 13
21 21 20 20 21 23 23 22 21 20 19 19 18 17 17 16 16 15 14 14 14 13 13 14 14 14 15 18 21 19 16 14 12 11 11 10 10 10 10 9 9 9 9 8 8 8 8 9 10 10 11 12 12 12 12 12 11 11 9 9 8 8 8 9 9 9 9 9 9 9 9 9 10 9 9 10 10 9 9 10 10 11 11 12 13
22 22 21 20 21 21 21 21 20 19 19 19 19 18 18 17 16 15 14 14 13 13 13 13 14 14 15 17 19 19 17 15 13 12 12 11 10 10 10 9 9 9 10 9 9 9 9 9 9 9 10 11 12 13 13 13 13 13 12 11 10 9 8 9 9 10 10 10 9 10 10 10 10 10 10 10 10 10 10 10 10 11 12 12 12
21 22 22 20 19 18 18 19 20 19 18 18 18 17 17 17 15 15 14 13 12 13 12 12 13 14 15 16 17 18 17 16 15 13 13 12 11 11 10 9 9 9 9 9 10 10 10 10 10 9 10 10 10 12 13 13 13 14 14 14 13 11 10 9 9 10 10 10 10 10 10 10 11 11 11 11 11 11 11 11 11 11 11 12 12
21 22 21 19 17 17 18 19 19 18 18 18 18 17 17 16 16 15 14 13 13 12 12 12 12 13 14 15 16 16 17 16 15 14 13 13 12 12 11 11 11 10 10 10 10 10 11 11 11 11 11 11 11 11 12 12 12 13 13 14 14 14 12 10 9 9 10 11 11 10 10 10 10 11 11 12 12 11 11 11 12 12 12 12 12
20 22 21 19 18 17 18 20 21 20 19 19 19 17 17 16 16 15 15 14 14 13 13 12 12 12 12 13 14 15 15 16 16 15 14 14 13 13 13 12 13 13 12 12 11 11 12 12 12 12 12 12 12 13 12 12 12 13 13 14 15 16 14 13 11 10 10 10 11 10 10 10 10 10 11 11 12 12 12 12 12 13 13 13 13
19 21 23 22 20 18 17 18 20 20 20 19 19 18 17 16 16 16 15 15 14 14 14 13 12 11 11 12 13 14 15 15 15 15 15 14 14 14 14 14 14 14 14 14 14 13 13 13 13 14 14 13 13 13 13 13 13 12 13 15 15 15 15 15 15 15 13 11 10 10 10 10 11 11 11 11 12 12 13 13 13 13 14 14 13
18 19 21 21 20 19 18 18 18 19 19 18 18 17 17 17 16 16 16 15 14 14 14 13 12 12 13 12 12 13 14 15 15 15 15 15 14 14 14 14 14 15 15 15 14 15 15 15 15 15 14 14 14 14 13 13 13 13 14 15 15 14 14 16 17 18 17 16 14 12 11 11 11 12 11 11 12 12 13 14 14 13 14 14 14
Wind_Direction
195 194 218 229 221 213 216 217 221 224 221 221 221 223 227 228 231 236 236 237 232 224 222 221 222 237 248 249 250 250 247 244 247 248 243 241 246 249 249 246 243 241 239 237 235 234 232 231 233 236 239 242 245 247 247 246 246 247 249 247 246 245 236 236 249 253 243 221 185 183 184 187 190 187 179 179 192 182 167 183 201 187 180 186 189
184 198 220 219 207 208 212 213 220 221 217 222 223 225 231 231 233 235 235 238 232 222 220 218 219 235 246 248 250 252 249 244 244 247 247 245 245 247 246 245 244 243 240 237 236 236 234 233 234 236 237 239 242 245 246 248 249 248 248 245 244 245 234 227 242 248 232 213 204 196 188 188 191 189 191 194 194 191 186 190 195 193 195 188 182
173 193 207 203 199 207 211 210 216 217 217 224 224 225 229 228 228 228 228 230 223 215 218 222 222 233 243 246 246 248 250 248 243 244 249 249 248 250 249 247 247 244 240 236 234 235 237 237 238 237 238 237 237 241 244 248 252 254 253 250 248 247 237 224 230 242 241 222 210 206 196 192 195 192 192 197 196 196 198 202 205 206 203 192 192
166 195 203 192 188 199 206 209 213 216 220 223 224 226 226 224 225 221 219 220 213 212 222 227 223 228 237 241 242 244 247 249 247 246 248 249 250 253 251 249 250 248 244 242 239 239 241 242 244 242 241 240 238 240 243 246 250 253 252 249 248 249 242 228 223 233 241 233 219 216 205 195 196 193 190 193 199 203 205 206 209 209 202 198 204
166 203 204 181 179 191 199 208 217 221 223 223 223 222 217 219 221 215 213 213 210 216 227 227 222 228 234 238 242 243 245 248 250 250 252 252 252 255 255 250 250 250 249 248 246 246 246 246 249 247 244 243 242 242 244 246 247 249 249 246 242 242 242 234 226 228 236 238 227 214 207 199 192 190 194 193 191 196 202 205 208 206 199 201 219
170 201 197 171 174 188 197 211 222 221 218 218 217 214 210 211 215 214 213 213 214 224 231 227 224 230 235 240 246 246 246 248 250 251 253 253 251 252 252 250 249 248 247 246 246 246 246 245 244 243 241 241 242 245 247 247 247 247 247 245 241 240 240 237 232 229 233 238 231 215 206 200 191 189 197 199 195 196 201 202 207 208 203 202 221
169 196 195 172 170 185 202 210 214 212 211 212 210 209 209 209 215 219 217 216 220 228 232 229 230 234 237 243 248 248 247 249 249 250 252 255 253 250 249 249 250 248 246 244 243 243 244 246 244 241 240 242 244 246 245 245 246 246 244 244 243 241 240 237 234 231 233 236 233 224 212 203 199 196 199 204 206 208 209 208 208 210 211 209 210
164 186 193 179 174 187 199 200 203 203 203 205 207 208 211 210 213 218 220 220 224 231 235 235 235 237 240 245 248 248 249 250 250 248 249 252 254 254 254 253 252 252 250 246 245 244 241 242 244 245 245 245 245 246 246 243 245 246 244 243 243 241 239 238 235 230 232 235 234 227 215 204 204 201 197 201 208 213 216 220 219 212 210 212 209
161 177 190 191 187 188 190 193 196 193 191 196 202 204 209 209 207 211 218 222 228 235 238 235 234 236 238 240 243 245 248 251 251 248 247 250 252 255 257 257 256 256 256 253 252 251 244 238 243 248 247 245 245 247 246 242 242 246 246 243 243 242 240 240 238 233 231 233 232 225 214 207 204 200 195 198 209 218 220 224 230 219 203 206 212
158 173 186 192 193 189 188 189 190 189 188 190 195 198 202 202 200 204 212 217 224 227 228 229 231 234 236 237 240 244 245 249 249 245 244 249 252 254 257 262 265 264 264 263 261 261 257 249 249 250 246 247 249 249 249 249 250 251 251 247 246 249 248 243 240 237 233 234 232 224 218 218 214 206 203 204 211 220 221 222 228 220 201 203 212
160 172 177 175 179 183 185 186 186 188 190 189 188 190 193 190 188 194 198 201 208 213 219 227 230 233 237 237 239 240 236 238 242 244 248 252 253 255 258 263 266 263 262 263 264 266 264 257 256 256 249 248 248 247 250 257 258 254 249 245 241 242 247 249 249 245 240 239 239 235 232 229 221 215 214 209 208 215 221 221 220 215 205 208 218
163 170 168 167 173 179 182 183 183 187 189 185 178 174 176 176 175 182 188 194 206 216 222 230 235 237 241 245 246 241 230 235 244 250 257 258 253 255 261 264 264 261 259 261 265 268 263 256 258 254 247 247 249 249 250 254 256 254 252 251 249 248 247 249 253 253 252 254 255 256 256 250 237 228 221 212 207 209 216 217 214 211 210 217 227
163 166 165 168 177 181 179 175 177 181 177 168 161 161 165 165 163 170 183 202 230 243 245 250 255 254 256 260 259 254 245 250 253 255 261 262 258 261 267 266 262 261 261 260 263 262 258 261 264 256 250 253 256 256 253 252 256 258 258 257 257 256 255 253 252 250 251 257 261 262 264 261 253 242 230 217 207 201 207 213 212 212 212 219 229
164 165 166 171 177 178 173 170 173 173 166 158 154 158 163 160 163 183 207 229 244 255 256 257 259 262 264 264 262 255 242 250 256 258 264 268 268 273 279 273 262 261 262 261 263 262 257 258 260 257 257 259 258 255 253 255 258 257 257 256 253 253 254 255 256 254 250 249 248 251 256 253 248 245 236 219 208 206 209 210 211 215 215 221 229
166 168 170 173 175 175 173 174 176 172 169 167 165 171 175 171 183 207 224 238 244 250 254 254 254 256 259 260 262 258 254 265 276 277 275 277 277 282 288 283 272 265 260 257 263 268 266 266 267 266 265 264 261 256 252 255 257 254 252 252 250 249 246 247 250 252 252 249 243 242 246 247 249 250 239 222 220 226 226 220 218 218 214 219 223
170 171 172 174 175 177 178 178 178 173 172 175 177 180 185 191 210 227 235 241 240 241 247 248 248 251 253 254 255 252 251 267 280 287 288 286 284 283 282 283 282 278 273 271 271 271 270 268 267 266 266 264 262 261 260 261 262 261 258 254 251 250 248 249 249 248 249 251 244 241 243 244 246 248 240 230 230 235 231 225 227 222 212 221 220
174 174 176 178 179 182 184 182 179 176 176 180 183 185 194 210 228 239 238 235 232 231 238 239 240 244 245 250 256 248 235 258 279 290 297 300 300 292 279 277 280 279 278 281 283 280 276 272 270 269 267 263 263 268 270 267 263 261 259 257 255 252 248 250 253 252 252 251 247 246 245 244 246 248 246 243 240 237 227 220 228 229 222 227 222
179 179 180 182 183 187 189 186 181 178 179 184 188 193 205 218 228 234 237 237 231 227 232 236 236 236 235 247 261 243 212 283 287 288 305 311 308 296 282 277 278 277 277 279 278 275 275 275 275 274 270 265 265 271 274 273 270 264 258 255 254 255 252 248 252 259 260 255 251 250 250 250 250 250 251 251 247 242 234 227 233 236 230 228 221
181 180 180 182 184 187 188 186 183 181 185 191 195 201 207 216 223 225 229 235 232 228 231 235 234 230 227 237 253 254 275 298 296 297 305 303 294 286 281 278 277 276 276 276 276 273 271 273 272 270 269 267 268 272 276 278 277 271 267 263 256 255 256 250 248 253 257 255 252 250 251 253 254 253 253 253 249 245 240 235 240 242 237 236 228
179 178 177 177 180 183 184 184 182 184 191 194 198 209 216 220 222 221 225 230 226 223 229 234 233 226 222 232 246 259 267 274 289 304 307 304 298 288 280 277 278 279 277 276 277 274 270 270 266 263 266 269 268 268 270 272 272 270 270 268 258 256 260 258 254 253 256 258 257 252 252 254 257 259 256 253 253 251 244 237 238 242 241 241 230
177 176 176 174 175 177 179 179 180 183 189 188 191 211 224 226 225 222 225 230 228 225 226 225 226 226 231 244 252 252 250 256 292 312 316 322 322 310 293 280 277 281 283 280 278 275 274 275 266 251 258 271 271 266 262 260 262 264 263 260 257 260 263 265 264 260 260 262 259 253 252 254 257 259 254 252 253 253 247 238 236 241 246 249 242
173 173 173 172 173 176 176 178 179 181 182 184 195 212 221 227 231 228 226 226 229 230 222 214 222 234 238 243 245 238 232 245 289 316 330 336 330 322 311 284 267 271 282 283 283 284 285 291 289 267 265 274 277 270 258 244 237 244 248 251 258 262 262 267 270 269 267 264 257 253 249 247 252 253 250 248 244 239 239 231 229 235 241 247 248
166 165 167 169 174 179 178 177 177 179 184 196 211 217 217 221 223 222 223 225 227 232 226 218 228 242 236 224 216 208 224 244 266 303 324 330 326 321 318 299 276 268 270 276 285 292 290 288 285 282 283 290 291 273 237 195 188 221 236 244 256 261 261 264 267 269 270 264 253 247 242 238 243 244 237 234 231 224 218 201 208 217 226 235 244
160 160 165 171 176 180 179 181 185 191 199 208 217 219 216 216 217 214 217 220 223 230 229 224 227 230 218 203 190 187 208 238 245 288 316 326 327 327 330 323 300 276 263 268 282 288 278 269 272 279 286 289 282 241 187 164 177 236 263 275 274 265 256 255 258 262 266 265 255 248 243 240 239 221 196 204 211 213 214 185 181 197 215 234 243
157 159 163 168 171 173 178 188 198 203 208 213 219 218 213 214 218 216 216 218 219 225 223 218 227 222 198 182 185 179 180 218 244 297 323 333 359 29 34 40 57 85 216 254 277 296 292 271 261 258 196 182 166 164 186 197 252 288 300 300 284 264 253 252 255 256 257 259 260 257 245 222 207 179 176 192 186 170 187 173 153 166 183 177 164
149 155 159 162 169 178 187 196 205 215 221 222 221 218 215 218 219 219 221 218 215 220 218 210 220 218 186 169 183 179 173 213 234 277 314 316 34 45 44 45 49 55 56 54 74 83 83 94 112 119 135 156 161 153 147 359 350 344 341 322 293 278 268 260 260 260 258 260 263 259 198 169 176 161 139 150 149 145 153 144 121 115 122 121 112
145 153 163 168 180 196 207 212 217 223 223 221 217 213 214 221 220 214 214 210 206 212 214 206 212 214 189 175 188 193 195 210 207 154 124 133 100 58 45 35 32 34 28 19 39 68 70 68 69 76 79 71 59 59 52 26 353 336 335 322 303 298 286 268 266 273 276 275 274 116 105 121 143 135 115 114 120 125 131 127 113 105 108 113 107
157 167 177 184 194 207 215 219 221 224 219 214 216 215 211 221 226 216 209 206 197 199 204 204 209 216 202 188 195 199 191 185 168 146 143 138 110 79 57 35 26 23 12 359 53 52 43 45 50 51 52 47 51 59 57 44 33 16 357 342 330 319 294 271 274 298 323 331 38 86 92 96 103 105 104 105 106 111 115 112 109 108 108 108 106
172 180 187 192 197 204 211 214 216 221 218 207 208 213 203 208 220 218 229 235 224 216 222 210 201 208 208 197 196 189 170 162 152 143 145 139 108 77 58 40 28 18 33 105 114 68 48 136 136 99 96 102 87 82 78 74 70 57 37 30 29 23 17 11 3 11 28 48 68 81 86 91 95 96 100 103 103 104 108 107 108 110 109 106 106
177 186 192 197 197 196 201 205 204 208 212 202 193 203 216 220 217 208 215 225 221 226 255 257 183 193 201 190 192 182 133 141 141 132 127 119 92 65 47 39 40 47 89 125 142 85 59 90 92 75 85 93 88 87 85 82 80 73 60 51 48 47 51 55 58 60 66 73 79 85 89 92 95 96 99 101 99 97 100 104 108 111 111 109 109
182 189 195 198 194 189 192 194 189 189 197 195 186 191 208 221 227 224 220 217 213 217 234 240 219 207 180 153 163 164 138 139 140 133 122 106 61 38 28 23 32 83 107 146 237 68 74 75 73 79 89 94 95 101 101 95 89 83 75 67 61 61 63 65 69 75 80 83 86 90 94 98 100 99 99 99 99 99 102 105 108 110 112 113 114
189 192 194 193 187 184 184 181 175 175 181 184 189 200 201 200 213 221 222 221 215 213 220 226 213 198 178 150 147 156 153 149 146 140 130 89 29 23 21 26 78 108 110 275 280 80 82 85 93 97 101 102 104 107 107 102 96 90 85 80 72 69 73 74 76 79 83 88 93 96 99 103 105 106 106 106 107 109 110 111 113 114 115 116 118
199 196 194 188 181 181 180 174 171 174 177 179 187 200 205 202 194 185 187 198 202 198 200 200 190 183 179 168 160 162 161 156 153 149 130 50 18 21 35 82 120 122 108 325 77 90 85 88 99 104 104 103 104 105 105 104 103 101 98 91 82 83 87 85 86 88 89 92 99 103 105 108 112 114 116 116 115 116 115 115 118 121 121 121 123
208 204 198 188 177 180 184 180 177 178 177 177 183 191 198 202 193 168 157 159 166 178 190 193 188 181 176 171 168 168 166 161 157 152 116 36 30 63 95 114 126 124 105 88 95 96 94 97 101 102 100 96 96 98 98 98 101 102 103 99 93 91 93 96 101 105 104 103 106 107 111 117 121 122 121 119 116 117 119 122 125 126 127 129 131
214 211 205 196 183 183 190 191 190 187 179 174 178 185 189 192 187 174 165 163 164 169 176 183 187 183 175 171 173 174 171 166 159 147 112 60 86 137 158 160 146 131 119 112 103 96 99 104 104 104 101 92 83 80 82 87 95 94 94 98 99 96 96 100 106 112 117 118 117 118 122 126 126 125 122 120 121 124 128 133 138 139 139 141 141
214 208 202 198 193 193 196 194 195 199 189 177 175 178 181 184 184 179 174 173 174 173 169 171 180 181 176 176 179 179 178 175 166 155 134 116 140 184 204 191 151 133 128 123 116 107 106 107 107 109 110 104 91 76 67 69 76 76 76 83 91 95 99 105 115 123 125 122 122 126 129 130 128 127 125 124 128 134 136 138 143 148 149 146 143
216 207 199 196 198 204 204 195 192 198 197 184 178 176 176 178 182 181 178 179 181 178 170 166 169 175 180 185 186 184 182 182 178 173 156 146 165 212 223 165 136 139 137 130 128 125 121 119 120 120 124 128 123 106 84 76 74 70 66 59 58 77 95 104 117 129 128 123 123 127 128 127 128 129 130 132 136 139 139 139 140 141 138 135 138
221 214 205 199 200 206 207 199 189 190 190 187 184 182 177 176 178 180 179 179 181 183 177 171 172 176 182 187 189 188 189 190 188 182 169 164 175 198 186 150 143 149 145 139 140 138 133 135 140 138 140 145 142 133 128 114 93 81 78 77 81 98 114 116 118 125 128 126 128 130 128 128 132 134 134 136 138 137 137 141 142 139 138 143 149
223 218 211 203 200 203 206 199 187 182 183 186 189 189 186 180 178 180 180 178 181 186 183 179 180 182 181 180 183 187 191 194 193 186 180 180 185 184 171 157 150 147 148 151 156 154 149 151 155 158 161 166 165 166 170 154 125 108 110 113 112 124 138 134 133 138 139 135 136 140 138 135 138 138 139 140 141 142 145 147 147 148 154 158 156
222 219 214 208 204 204 205 199 188 181 183 186 188 192 193 188 182 182 181 180 183 189 188 186 187 186 181 178 180 184 189 194 194 187 182 183 183 180 178 174 164 158 159 162 164 167 167 166 168 174 179 179 179 183 188 185 180 187 203 197 166 151 151 153 156 160 159 152 152 154 151 145 144 146 149 149 147 149 153 151 151 158 162 159 155
219 216 211 208 207 206 204 199 191 186 185 185 187 192 196 191 187 185 183 181 185 190 191 191 190 186 182 182 184 188 195 200 194 188 187 187 185 186 189 187 180 178 179 176 175 180 181 178 180 187 191 190 192 196 198 202 207 209 210 213 209 191 179 179 183 182 179 177 179 178 170 167 169 167 162 159 159 162 163 160 160 169 171 164 164
214 211 206 202 202 205 206 201 192 188 187 186 187 191 193 191 189 188 185 184 187 190 193 194 190 186 188 189 189 191 201 206 195 191 194 194 192 194 198 198 197 200 200 195 191 192 194 194 195 199 201 202 204 206 207 211 219 222 219 217 218 215 206 196 188 189 195 195 194 192 185 182 187 183 168 167 174 178 177 174 174 178 180 177 177
211 208 205 200 199 203 205 200 191 189 192 192 189 189 190 190 191 190 187 186 188 190 195 195 188 183 190 196 195 196 204 212 204 198 201 201 199 201 206 208 207 207 211 213 211 207 208 211 213 215 215 214 214 217 219 219 222 227 231 229 226 227 225 215 198 196 205 204 198 196 193 190 193 190 180 182 192 193 189 189 188 188 189 188 187
208 208 208 205 202 201 200 197 194 193 195 194 189 185 186 191 195 194 190 188 189 192 197 199 192 183 186 194 197 201 209 215 210 205 205 206 205 206 208 210 208 206 211 217 219 217 220 224 225 226 227 226 225 227 229 229 230 233 236 237 235 232 232 228 214 206 210 209 203 200 198 195 198 196 189 190 196 195 191 196 200 200 198 195 193
204 206 208 207 206 203 198 194 193 191 190 189 187 184 185 192 197 196 191 187 190 195 200 201 197 189 185 188 194 201 209 214 211 209 209 208 208 211 214 214 211 211 216 220 217 216 222 229 231 232 233 234 234 235 235 236 238 239 238 240 241 237 233 231 223 215 213 211 208 206 204 201 202 201 194 192 196 196 192 195 199 203 206 205 201
204 207 208 209 211 211 206 200 196 190 187 187 188 186 187 192 194 194 191 188 189 195 201 202 200 197 192 191 195 201 207 211 211 210 211 212 213 215 218 218 216 217 222 225 222 219 222 228 234 237 237 237 237 238 237 237 238 239 239 240 242 241 238 231 224 219 216 213 212 211 208 205 207 209 204 200 201 202 199 197 196 198 203 208 207
207 210 212 210 211 214 212 207 202 195 189 189 188 185 185 188 190 191 191 189 189 195 200 201 202 202 200 198 199 202 205 209 212 212 212 215 217 219 220 221 222 224 227 229 228 227 227 230 234 238 240 240 238 237 238 238 237 238 238 236 237 239 238 228 220 219 218 215 215 217 215 210 210 211 210 209 210 209 206 204 202 200 201 205 206
210 212 213 207 204 207 206 201 199 195 191 190 189 184 182 184 187 189 189 188 190 197 203 203 204 207 207 207 206 206 206 209 213 214 215 217 219 221 223 224 227 230 233 233 233 234 235 234 234 236 237 238 236 235 237 237 237 237 237 235 233 232 228 220 216 219 218 214 214 218 219 216 216 214 212 212 215 215 212 210 207 204 203 205 206
211 213 212 205 202 205 204 199 197 196 193 190 187 182 180 182 187 189 189 189 192 200 207 207 207 209 211 212 213 212 211 212 214 217 219 220 220 222 225 227 230 235 239 240 239 239 239 238 236 236 236 236 236 237 238 239 238 237 235 233 231 228 223 219 218 218 213 210 211 216 218 219 221 220 216 214 217 219 218 217 213 209 208 209 208
211 212 211 207 204 207 208 205 201 197 192 187 183 178 178 184 191 195 195 194 195 200 206 208 209 212 214 216 217 217 216 216 216 218 219 221 223 225 229 231 233 237 241 244 244 243 241 238 236 235 233 232 234 237 238 238 239 237 234 233 231 227 223 221 220 217 213 212 215 220 222 221 221 221 218 216 218 222 222 221 219 214 212 213 212
209 208 209 207 206 207 209 208 204 198 191 186 183 181 182 188 195 198 197 196 196 198 200 205 211 218 220 220 220 220 219 219 219 219 220 222 224 228 232 236 238 240 242 245 246 244 242 240 238 235 232 230 231 233 235 235 235 234 231 229 229 227 225 225 225 223 222 223 225 229 229 225 222 223 221 217 218 222 223 222 222 220 217 216 216
Height
792 795 794 793 795 798 802 803 803 803 803 803 804 805 806 808 809 810 811 812 812 813 814 815 815 817 819 819 819 819 819 820 820 820 820 821 821 821 822 822 822 822 823 822 822 822 823 823 824 824 824 824 823 823 823 823 823 823 823 823 823 824 824 825 825 824 824 825 826 826 827 828 828 829 830 831 831 831 831 832 833 833 834 834 834
792 794 791 791 795 798 799 800 800 800 801 802 802 803 805 806 807 808 809 810 810 811 812 812 812 814 817 817 817 817 817 818 819 819 819 818 818 818 819 820 820 820 821 821 820 821 821 821 822 822 822 822 822 822 821 821 821 821 821 821 821 821 822 823 823 823 823 823 825 825 826 826 827 828 829 830 830 831 831 831 832 832 833 833 834
793 794 791 792 796 796 796 797 798 799 799 800 801 802 803 804 806 806 807 808 808 809 810 810 810 812 814 815 815 816 816 816 817 817 817 816 816 816 816 817 818 818 818 818 818 819 819 819 819 820 820 820 820 820 820 820 820 819 819 819 819 820 820 821 822 822 821 822 823 824 824 825 826 827 828 829 829 830 830 830 831 832 832 832 833
793 791 790 793 795 794 794 795 796 797 798 799 800 801 802 803 804 805 805 806 806 807 808 808 808 810 812 813 813 814 814 814 815 815 814 815 815 815 814 815 815 816 816 816 816 817 817 817 818 818 818 818 818 818 818 818 818 818 818 818 818 819 819 820 821 821 821 820 821 822 823 824 825 826 827 827 828 829 829 830 830 831 831 832 832
790 787 787 791 792 792 793 793 794 795 797 798 799 800 801 802 803 803 804 804 805 806 807 807 807 808 810 811 812 812 812 812 812 813 813 813 814 813 813 813 813 814 814 814 815 816 816 816 816 816 817 817 817 817 817 817 817 817 817 816 816 817 817 818 819 820 820 819 820 821 822 823 824 825 826 826 827 828 828 829 830 830 831 830 830
786 783 785 789 790 791 791 792 793 794 795 796 798 799 800 801 802 802 802 803 804 806 806 806 806 807 809 810 810 810 811 811 811 811 812 811 811 812 811 811 812 812 812 813 813 813 813 814 814 815 815 815 815 816 815 815 816 815 815 815 815 815 816 816 817 818 818 818 818 819 820 821 822 823 824 825 825 826 828 828 829 829 829 829 828
784 782 784 787 789 789 789 790 792 793 794 795 796 798 799 800 801 801 802 803 804 805 805 805 805 807 808 809 809 810 810 810 810 810 810 810 809 810 810 810 810 810 810 811 811 811 812 812 812 813 813 813 813 813 813 814 814 814 814 814 814 814 814 814 815 816 816 816 816 817 818 819 820 821 822 823 824 825 826 827 827 827 827 827 827
783 782 783 786 788 788 788 789 791 792 793 794 795 796 797 799 800 801 801 802 803 804 804 804 805 806 807 808 808 809 809 809 808 808 808 808 808 808 808 808 808 808 808 808 809 809 810 810 811 812 812 812 812 812 812 812 812 812 812 812 813 813 813 812 813 813 813 813 813 814 815 816 818 819 820 821 822 823 824 824 824 825 825 826 827
782 782 782 784 786 787 788 789 790 792 793 794 795 796 797 798 799 800 801 801 802 803 804 805 805 806 806 807 807 807 807 807 806 806 806 806 807 807 807 807 807 806 806 806 806 807 808 808 809 810 811 811 812 811 811 810 810 810 811 811 812 812 812 811 810 810 811 811 811 811 812 813 815 816 817 818 819 820 821 822 821 822 824 825 825
781 782 782 783 785 787 788 790 790 791 793 794 795 796 797 798 799 799 800 801 802 803 804 805 805 805 805 806 806 806 806 805 804 804 805 805 806 806 806 806 806 805 806 805 805 806 806 807 807 808 810 811 810 809 808 808 809 809 810 810 811 811 812 811 809 809 809 809 809 809 809 810 811 812 814 815 816 818 818 819 819 821 822 823 823
781 782 783 784 786 787 788 790 790 791 792 794 795 796 797 798 799 800 800 801 802 803 804 804 804 804 804 804 804 805 804 804 803 804 805 805 805 806 805 805 805 804 805 804 804 804 805 805 806 806 807 807 806 805 806 807 807 807 807 808 808 810 810 809 809 808 808 808 807 806 806 807 808 809 811 812 814 814 815 816 817 818 819 820 820
782 783 784 785 787 788 789 790 790 792 792 793 795 796 797 798 799 800 800 801 802 802 803 803 803 803 803 803 803 803 803 803 803 804 804 804 805 805 805 804 803 803 803 802 802 803 803 803 803 803 804 803 803 804 804 805 804 804 804 805 806 808 808 808 809 809 808 807 807 807 808 807 806 807 808 809 810 811 812 813 814 815 816 816 816
782 784 785 786 787 788 789 790 791 792 793 794 795 796 797 798 799 800 800 801 802 802 802 802 802 802 802 802 803 803 802 802 803 803 803 803 803 803 804 804 803 802 801 801 801 802 802 801 801 802 802 801 801 802 802 802 802 801 802 803 804 805 805 805 806 806 806 806 806 807 809 808 805 805 806 806 807 808 809 810 811 811 812 812 813
783 784 785 787 787 788 789 790 791 792 793 794 795 796 797 798 799 800 800 801 801 802 802 802 802 802 802 802 803 802 802 802 802 802 803 803 803 802 803 802 802 801 801 801 801 800 800 800 800 801 801 800 800 801 801 801 800 800 800 800 801 801 801 801 802 802 803 804 804 806 807 805 804 804 804 805 805 805 806 806 807 807 808 809 810
782 784 785 786 787 788 789 790 791 792 793 794 795 796 797 798 799 800 800 801 801 801 801 802 802 802 802 802 802 802 802 802 802 802 802 802 802 802 802 801 801 801 800 800 801 800 799 799 798 799 799 799 799 799 800 800 800 799 799 799 799 799 798 798 798 799 800 801 802 803 802 801 802 803 803 803 803 802 803 804 804 805 806 807 808
782 784 785 786 787 788 789 790 791 792 793 794 795 796 797 798 799 799 800 800 800 801 801 801 801 802 802 802 802 802 801 801 801 801 801 801 801 801 801 800 800 799 799 799 800 799 799 798 798 798 798 798 798 798 798 798 798 798 798 798 798 797 796 795 795 796 797 797 798 799 798 798 799 800 800 800 800 800 800 802 803 803 805 807 807
781 783 784 785 787 788 789 790 791 792 793 794 795 796 797 798 799 799 799 800 800 800 801 801 801 802 802 802 802 802 801 800 801 801 801 801 801 801 801 800 799 799 798 798 798 798 798 797 797 797 797 796 796 796 796 796 796 796 796 796 795 795 794 794 793 793 794 794 795 796 795 796 797 797 797 797 797 798 798 799 800 800 803 805 805
780 781 783 785 786 787 788 789 790 791 792 794 795 796 797 798 799 799 799 799 800 800 801 801 801 801 801 801 801 801 801 800 800 801 800 800 801 800 800 799 798 798 798 797 797 797 797 796 796 795 795 795 795 795 794 794 794 794 794 793 793 792 792 792 792 792 792 792 792 793 793 793 793 793 793 793 794 795 795 796 798 799 800 800 799
779 780 782 784 785 787 788 789 790 791 792 794 795 796 797 798 798 799 799 799 799 800 800 800 800 800 800 800 800 800 800 800 800 800 799 799 799 799 799 798 798 797 797 796 796 795 795 795 794 794 793 793 793 793 793 793 792 792 792 791 790 790 790 790 790 790 790 790 790 791 791 791 790 790 790 790 790 791 792 794 797 796 795 795 796
778 780 782 783 785 786 787 789 790 791 793 794 795 796 797 797 798 798 799 799 799 800 800 800 800 799 799 799 799 800 800 799 799 798 798 798 798 798 798 797 796 796 795 795 794 794 794 793 792 792 792 792 792 792 792 791 791 791 790 790 789 788 788 789 789 789 789 789 789 789 789 788 789 788 789 789 789 789 790 792 793 793 793 793 793
778 780 782 784 786 787 788 790 791 792 793 794 795 796 797 797 798 798 799 799 799 799 799 799 799 799 799 799 799 799 799 799 798 798 798 798 797 796 796 796 795 795 794 794 793 792 792 792 791 790 790 790 790 790 790 790 790 790 789 789 788 788 788 788 787 787 787 788 788 788 787 787 787 787 788 788 788 787 788 789 789 790 791 791 792
778 781 783 785 787 788 789 791 792 793 794 795 796 797 797 798 798 798 798 799 799 799 799 799 799 798 798 798 798 798 798 798 798 798 798 797 796 795 795 795 794 794 794 793 792 791 791 791 790 789 789 789 789 788 788 789 789 789 788 788 788 788 787 787 787 786 787 787 787 787 786 786 786 786 787 787 787 786 786 787 787 788 789 790 791
779 782 784 786 788 789 791 792 793 794 794 795 796 796 797 797 798 798 798 798 798 799 798 798 798 798 797 797 798 798 798 798 798 798 797 796 796 795 794 793 793 793 793 792 791 791 790 790 789 788 788 788 788 787 787 788 788 788 788 788 787 787 787 787 786 786 786 786 786 786 785 785 786 786 786 786 786 786 787 787 787 787 788 789 789
780 783 785 788 789 790 792 792 793 794 794 795 795 795 796 796 796 797 797 797 798 798 798 798 798 797 797 797 797 797 798 797 797 797 797 796 795 794 793 792 792 791 791 791 790 790 789 789 788 787 787 787 787 787 787 788 787 788 788 787 787 787 786 786 786 785 785 785 785 785 785 785 785 785 785 785 786 786 787 787 787 787 788 788 789
781 783 786 788 789 791 792 793 794 794 794 795 795 795 795 796 796 796 796 796 797 797 797 798 798 797 796 796 797 797 797 797 797 797 796 796 795 794 793 792 791 791 791 790 790 789 788 787 787 787 787 787 787 787 787 788 787 787 787 787 786 786 786 785 785 784 783 783 783 784 784 784 784 785 785 786 786 786 787 787 787 788 788 789 789
781 784 786 787 789 790 791 792 793 793 793 794 794 794 795 795 795 795 795 796 796 796 797 797 797 796 796 796 796 796 797 797 797 796 796 796 795 795 794 793 792 792 791 791 790 788 788 787 787 787 787 787 787 787 787 787 788 787 787 787 786 785 785 785 784 784 783 782 782 783 783 784 784 785 786 786 786 786 787 787 788 789 789 790 790
781 782 784 786 787 788 789 790 791 791 792 793 793 794 794 795 795 795 795 795 795 796 796 796 796 796 796 796 796 796 796 796 796 796 796 796 795 795 795 794 793 793 792 792 791 790 789 788 788 788 788 787 788 788 788 788 787 787 787 787 786 786 785 784 784 783 782 782 782 782 783 784 785 785 786 786 786 787 788 788 789 789 790 791 792
778 780 781 783 784 786 787 788 789 790 791 792 793 793 794 795 795 795 795 795 795 795 795 795 795 795 795 795 796 795 795 795 795 795 795 795 795 795 795 794 794 793 793 792 791 791 790 789 789 789 788 788 788 788 788 788 788 787 787 787 786 786 785 784 784 783 783 783 783 783 784 785 786 786 787 787 788 788 789 789 790 791 792 793 794
773 775 777 778 780 782 783 785 787 788 789 791 792 793 793 794 794 794 795 794 794 794 794 794 794 794 795 795 795 794 794 794 795 795 795 795 795 795 794 794 794 793 792 791 791 791 791 789 789 789 788 788 788 788 788 788 788 788 788 787 787 786 785 785 784 784 783 783 784 784 785 786 787 787 788 789 789 789 789 790 791 792 793 794 795
767 769 771 771 773 776 779 781 783 785 787 789 791 792 792 793 793 794 794 794 794 794 794 794 794 794 794 795 795 794 793 794 795 795 795 795 795 795 794 794 793 793 792 791 790 790 790 789 789 789 788 788 788 788 788 788 788 788 788 787 787 787 786 786 785 785 784 785 785 786 787 787 788 789 789 790 790 790 791 792 792 794 795 796 797
759 760 762 764 766 770 774 777 779 783 785 787 788 790 791 791 792 792 792 793 793 794 794 794 795 794 794 794 794 794 794 794 795 796 796 795 795 794 794 793 793 792 791 790 790 790 790 790 790 789 789 789 788 789 788 788 788 788 788 788 788 787 787 787 786 786 786 786 787 788 788 789 789 790 790 791 791 791 792 793 794 795 796 797 799
754 754 757 760 762 766 770 773 777 780 783 785 786 788 788 789 790 790 791 791 792 793 794 794 795 795 794 794 794 794 794 795 796 796 795 795 795 794 793 793 793 792 791 790 789 789 790 790 790 790 789 789 789 789 788 788 788 788 788 788 788 788 788 788 787 787 787 787 788 789 789 790 791 791 792 792 792 793 794 795 795 796 798 799 800
752 753 756 760 762 765 767 769 772 775 778 780 783 784 786 787 787 788 789 790 791 792 792 793 794 795 795 794 794 794 794 795 795 795 795 795 794 794 793 793 793 792 791 790 789 789 790 791 790 790 790 789 789 789 789 788 788 787 787 788 788 788 788 788 788 788 788 788 789 790 790 791 792 792 793 793 794 794 795 795 797 798 798 800 802
751 753 757 760 762 764 766 767 768 769 771 774 777 780 782 783 784 785 787 788 790 791 792 793 794 794 795 795 794 794 794 794 794 795 795 794 794 794 794 794 793 793 792 791 790 790 790 791 791 791 790 790 790 790 790 789 788 787 787 788 788 789 789 788 788 789 789 789 790 790 791 792 792 793 793 794 794 795 796 796 798 798 799 800 802
750 753 757 760 762 763 765 767 768 768 768 769 772 775 778 780 782 783 784 785 787 789 790 792 793 793 794 795 795 795 794 794 794 794 794 794 793 793 793 793 793 792 792 791 790 790 790 791 791 792 792 792 792 792 791 791 790 789 788 788 788 789 789 789 789 789 789 789 790 790 791 791 792 792 793 794 794 795 796 797 798 798 799 800 801
750 752 755 758 761 762 764 765 767 769 769 769 769 772 775 777 780 781 782 783 785 786 788 790 791 793 793 794 795 795 794 794 794 793 793 793 793 793 792 792 792 791 792 791 791 791 791 791 792 792 793 793 793 793 793 792 792 791 790 789 788 788 789 790 790 789 789 789 789 789 790 790 791 791 792 793 794 795 795 796 797 797 798 799 800
751 752 753 756 759 762 763 764 765 768 770 770 770 771 772 775 777 779 780 781 783 784 785 787 789 791 792 793 794 794 794 793 793 793 792 792 792 791 791 791 791 791 791 791 791 791 791 792 792 792 793 793 793 794 794 794 793 793 792 792 791 790 790 790 790 789 789 789 789 789 789 789 790 791 792 793 794 794 794 795 797 798 798 799 800
751 751 752 754 757 760 762 763 763 765 768 770 771 771 771 773 775 777 778 780 781 783 784 785 786 788 789 791 792 792 792 792 792 792 791 791 791 791 791 790 790 790 791 791 791 791 791 792 792 793 793 793 793 794 794 794 794 794 794 793 793 792 792 791 791 791 790 790 790 790 790 790 790 791 791 792 793 794 795 796 797 799 801 802 802
750 750 751 753 755 758 760 761 761 763 765 768 769 771 771 771 772 774 776 777 779 781 782 783 784 784 786 788 789 790 791 791 790 789 789 789 789 790 789 789 789 789 790 790 790 790 790 791 792 793 793 793 793 793 793 793 794 794 794 793 793 793 792 791 792 792 791 791 791 791 790 791 791 791 792 792 793 794 795 796 798 799 801 801 801
749 749 750 752 754 757 758 759 759 760 762 764 766 768 769 770 770 772 773 774 776 778 779 780 781 781 783 785 786 787 787 787 786 786 787 787 788 788 788 788 788 789 789 789 789 789 789 790 791 792 792 792 793 793 793 793 793 794 793 793 793 792 792 791 791 791 791 791 791 791 791 791 792 792 792 792 793 794 795 796 797 799 799 800 801
747 748 748 750 752 755 756 756 757 757 759 761 763 765 767 767 768 769 770 771 773 775 776 777 778 779 780 782 783 784 784 784 784 784 785 785 786 787 787 787 787 787 788 788 788 788 788 789 790 791 791 791 792 792 792 792 792 792 792 792 792 792 792 792 791 791 791 791 791 791 792 792 792 792 792 793 794 794 795 795 797 798 798 799 801
745 746 746 747 750 751 752 753 753 755 756 758 759 761 763 765 766 767 768 768 770 772 773 774 775 776 778 779 781 782 783 783 783 783 783 784 784 785 785 785 786 786 786 786 787 787 787 788 789 789 790 790 790 790 790 791 791 790 791 791 791 791 791 791 791 792 791 791 791 791 791 792 792 792 793 794 794 794 794 795 796 797 798 799 800
743 743 743 744 745 746 747 748 749 751 752 754 755 757 760 762 764 765 765 766 767 769 770 771 773 774 775 777 780 782 782 782 782 782 782 782 783 783 784 784 784 785 785 785 785 786 786 786 787 788 788 788 789 789 789 789 789 789 789 789 790 790 790 790 790 791 791 791 791 791 791 792 792 792 793 794 794 794 795 795 795 796 797 798 800
740 740 741 741 741 741 742 743 744 746 748 751 753 755 757 760 762 763 763 764 766 767 768 769 771 772 774 776 778 780 781 781 781 781 781 781 781 781 782 782 783 783 784 784 784 784 785 785 785 786 786 787 787 787 788 788 788 788 788 788 789 789 789 789 789 790 790 790 790 790 791 791 791 792 792 793 793 794 794 795 795 796 796 797 798
736 737 737 737 736 736 737 738 739 742 745 748 751 753 755 758 760 761 762 763 764 766 767 768 769 770 772 773 776 778 779 779 779 779 779 779 779 780 780 781 781 782 783 783 783 783 783 784 784 784 785 785 785 786 786 786 786 786 787 787 787 787 788 788 788 788 788 789 789 789 790 790 790 790 791 792 792 793 793 794 795 795 796 796 796
732 733 733 732 732 733 734 735 737 739 741 744 747 749 752 755 757 759 760 761 762 764 765 766 767 768 770 771 773 775 776 776 776 776 777 777 777 778 779 779 780 781 781 781 782 782 782 782 782 783 783 784 784 784 784 784 785 785 785 785 786 786 786 786 787 787 787 787 788 788 788 789 789 790 790 790 791 791 792 793 794 795 795 795 795
728 729 729 729 729 731 732 734 735 737 739 742 744 746 749 752 755 757 758 759 761 763 764 764 765 766 767 768 770 771 772 773 773 774 775 775 776 776 777 778 779 779 779 780 780 780 780 781 781 781 782 782 782 783 783 783 783 783 783 783 784 784 784 785 785 785 786 786 787 787 787 787 788 788 789 789 790 790 791 792 792 793 794 795 795
725 726 726 726 728 729 730 731 733 735 737 740 742 744 747 750 753 755 756 758 760 761 762 763 764 764 765 766 767 768 769 770 770 771 772 773 773 774 775 776 777 778 778 778 778 778 778 778 779 779 780 780 781 781 781 781 781 781 781 781 782 782 782 783 784 784 785 785 785 786 786 786 786 787 787 788 788 789 789 790 791 792 793 794 794
722 723 724 725 726 727 727 728 730 732 734 736 739 741 744 747 750 753 754 756 758 759 760 761 762 762 763 764 765 765 766 767 767 768 769 770 771 772 773 774 775 775 775 775 775 775 775 776 776 776 777 778 778 779 779 779 779 779 779 779 779 779 780 782 783 783 783 784 784 785 785 785 785 785 786 787 787 788 788 788 789 789 791 792 792
719 720 722 723 724 725 726 726 727 729 732 734 736 739 742 746 749 751 752 753 755 756 758 759 759 760 761 762 763 763 764 764 765 765 766 767 768 769 770 771 772 772 772 773 772 772 772 773 773 773 774 774 775 776 776 776 777 777 777 777 777 777 779 780 781 782 782 783 783 783 784 784 784 784 784 785 786 786 786 787 787 788 788 789 790
717 719 720 721 722 724 724 725 726 728 730 732 734 737 740 743 746 748 750 751 752 754 755 756 757 757 758 760 761 762 762 762 762 763 764 765 766 767 767 768 769 769 769 769 769 769 769 769 770 770 771 771 772 772 773 773 774 774 774 775 775 776 777 778 779 780 781 781 782 782 782 782 782 783 783 783 784 784 785 785 786 786 786 787 788